Tiempo cada hora Abqaiq

Hoy, 19 Octubre, Lunes

Tiempo Temperatura Precipitaciones Viento Presión Humedad
00:00 +20°C° 0 mm 0 mps 754 mmHg 73%
01:00 +23°C° 0 mm 1 mps 753 mmHg 64%
02:00 +24°C° 0 mm 2 mps 753 mmHg 55%
03:00 +25°C° 0 mm 4 mps 753 mmHg 44%
04:00 +23°C° 0 mm 4 mps 753 mmHg 41%
05:00 +23°C° 0 mm 4 mps 754 mmHg 39%
06:00 +23°C° 0 mm 4 mps 754 mmHg 37%
07:00 +26°C° 0 mm 4 mps 754 mmHg 31%
08:00 +29°C° 0 mm 5 mps 755 mmHg 25%
09:00 +33°C° 0 mm 5 mps 755 mmHg 20%
10:00 +34°C° 0 mm 5 mps 754 mmHg 17%
11:00 +36°C° 0 mm 5 mps 754 mmHg 15%
12:00 +37°C° 0 mm 5 mps 754 mmHg 12%
13:00 +37°C° 0 mm 5 mps 753 mmHg 12%
14:00 +39°C° 0 mm 5 mps 753 mmHg 11%
15:00 +39°C° 0 mm 5 mps 752 mmHg 11%
16:00 +35°C° 0 mm 4 mps 752 mmHg 17%
17:00 +33°C° 0 mm 4 mps 753 mmHg 22%
18:00 +29°C° 0 mm 4 mps 753 mmHg 28%
19:00 +28°C° 0 mm 3 mps 753 mmHg 35%
20:00 +26°C° 0 mm 3 mps 753 mmHg 43%
21:00 +25°C° 0 mm 2 mps 753 mmHg 50%
22:00 +24°C° 0 mm 2 mps 753 mmHg 49%
23:00 +24°C° 0 mm 2 mps 753 mmHg 48%

Mañana, 20 Octubre, Martes

Tiempo Temperatura Precipitaciones Viento Presión Humedad
00:00 +24°C° 0 mm 3 mps 753 mmHg 47%
01:00 +24°C° 0 mm 3 mps 753 mmHg 43%
02:00 +23°C° 0 mm 4 mps 752 mmHg 39%
03:00 +23°C° 0 mm 4 mps 752 mmHg 34%
04:00 +23°C° 0 mm 4 mps 752 mmHg 32%
05:00 +22°C° 0 mm 4 mps 753 mmHg 29%
06:00 +22°C° 0 mm 5 mps 753 mmHg 27%
07:00 +26°C° 0 mm 5 mps 753 mmHg 24%
08:00 +28°C° 0 mm 6 mps 753 mmHg 22%
09:00 +32°C° 0 mm 6 mps 754 mmHg 20%
10:00 +34°C° 0 mm 6 mps 753 mmHg 18%
11:00 +36°C° 0 mm 6 mps 753 mmHg 15%
12:00 +39°C° 0 mm 6 mps 752 mmHg 13%
13:00 +39°C° 0 mm 6 mps 752 mmHg 12%
14:00 +39°C° 0 mm 6 mps 752 mmHg 12%
15:00 +39°C° 0 mm 5 mps 751 mmHg 12%
16:00 +35°C° 0 mm 5 mps 751 mmHg 20%
17:00 +32°C° 0 mm 4 mps 752 mmHg 28%
18:00 +28°C° 0 mm 3 mps 752 mmHg 35%
19:00 +26°C° 0 mm 2 mps 752 mmHg 47%
20:00 +24°C° 0 mm 1 mps 753 mmHg 58%
21:00 +20°C° 0 mm 0 mps 753 mmHg 70%
22:00 +22°C° 0 mm 1 mps 753 mmHg 66%
23:00 +22°C° 0 mm 1 mps 753 mmHg 62%

Pasado mañana, 21 Octubre, Miércoles

Tiempo Temperatura Precipitaciones Viento Presión Humedad
00:00 +22°C° 0 mm 1 mps 753 mmHg 58%
01:00 +23°C° 0 mm 2 mps 752 mmHg 53%
02:00 +22°C° 0 mm 3 mps 752 mmHg 47%
03:00 +22°C° 0 mm 3 mps 752 mmHg 42%
04:00 +22°C° 0 mm 3 mps 753 mmHg 39%
05:00 +21°C° 0 mm 3 mps 753 mmHg 35%
06:00 +21°C° 0 mm 3 mps 753 mmHg 32%
07:00 +24°C° 0 mm 3 mps 754 mmHg 26%
08:00 +27°C° 0 mm 3 mps 754 mmHg 20%
09:00 +30°C° 0 mm 3 mps 755 mmHg 14%
10:00 +31°C° 0 mm 2 mps 754 mmHg 12%
11:00 +34°C° 0 mm 2 mps 754 mmHg 10%
12:00 +35°C° 0 mm 1 mps 753 mmHg 8%
13:00 +35°C° 0 mm 1 mps 753 mmHg 7%
14:00 +36°C° 0 mm 1 mps 752 mmHg 7%
15:00 +36°C° 0 mm 1 mps 752 mmHg 6%
16:00 +34°C° 0 mm 2 mps 752 mmHg 11%
17:00 +30°C° 0 mm 2 mps 753 mmHg 16%
18:00 +26°C° 0 mm 3 mps 753 mmHg 21%
19:00 +25°C° 0 mm 2 mps 753 mmHg 26%
20:00 +23°C° 0 mm 1 mps 753 mmHg 31%
21:00 +22°C° 0 mm 1 mps 753 mmHg 36%
22:00 +22°C° 0 mm 1 mps 753 mmHg 37%
23:00 +21°C° 0 mm 1 mps 753 mmHg 39%

22 Octubre, Jueves

Tiempo Temperatura Precipitaciones Viento Presión Humedad
00:00 +21°C° 0 mm 1 mps 753 mmHg 41%
01:00 +22°C° 0 mm 1 mps 753 mmHg 35%
02:00 +21°C° 0 mm 2 mps 753 mmHg 29%
03:00 +23°C° 0 mm 2 mps 753 mmHg 24%
04:00 +23°C° 0 mm 2 mps 753 mmHg 24%
05:00 +21°C° 0 mm 3 mps 753 mmHg 24%
06:00 +21°C° 0 mm 3 mps 754 mmHg 24%
07:00 +25°C° 0 mm 3 mps 754 mmHg 23%
08:00 +27°C° 0 mm 3 mps 754 mmHg 22%
09:00 +30°C° 0 mm 3 mps 754 mmHg 21%
10:00 +33°C° 0 mm 3 mps 754 mmHg 17%
11:00 +35°C° 0 mm 3 mps 753 mmHg 14%
12:00 +37°C° 0 mm 3 mps 753 mmHg 11%
13:00 +37°C° 0 mm 3 mps 752 mmHg 10%
14:00 +37°C° 0 mm 3 mps 752 mmHg 10%
15:00 +38°C° 0 mm 3 mps 751 mmHg 9%
16:00 +34°C° 0 mm 3 mps 752 mmHg 18%
17:00 +30°C° 0 mm 3 mps 752 mmHg 26%
18:00 +27°C° 0 mm 3 mps 752 mmHg 35%
19:00 +25°C° 0 mm 2 mps 752 mmHg 43%
20:00 +24°C° 0 mm 1 mps 752 mmHg 52%
21:00 +22°C° 0 mm 1 mps 752 mmHg 60%
22:00 +22°C° 0 mm 1 mps 752 mmHg 61%
23:00 +22°C° 0 mm 1 mps 752 mmHg 62%

23 Octubre, Viernes

Tiempo Temperatura Precipitaciones Viento Presión Humedad
00:00 +21°C° 0 mm 1 mps 752 mmHg 63%
01:00 +22°C° 0 mm 1 mps 752 mmHg 57%
02:00 +21°C° 0 mm 2 mps 752 mmHg 50%
03:00 +21°C° 0 mm 2 mps 752 mmHg 43%
04:00 +21°C° 0 mm 3 mps 752 mmHg 43%
05:00 +21°C° 0 mm 3 mps 753 mmHg 44%
06:00 +21°C° 0 mm 4 mps 753 mmHg 44%
07:00 +24°C° 0 mm 3 mps 753 mmHg 38%
08:00 +27°C° 0 mm 3 mps 753 mmHg 32%
09:00 +29°C° 0 mm 3 mps 754 mmHg 26%
10:00 +31°C° 0 mm 2 mps 753 mmHg 22%
11:00 +34°C° 0 mm 2 mps 753 mmHg 17%
12:00 +34°C° 0 mm 1 mps 753 mmHg 13%
13:00 +36°C° 0 mm 2 mps 752 mmHg 13%
14:00 +36°C° 0 mm 2 mps 752 mmHg 13%
15:00 +36°C° 0 mm 3 mps 752 mmHg 13%
16:00 +33°C° 0 mm 3 mps 752 mmHg 22%
17:00 +29°C° 0 mm 3 mps 752 mmHg 32%
18:00 +26°C° 0 mm 3 mps 752 mmHg 42%
19:00 +25°C° 0 mm 2 mps 752 mmHg 51%
20:00 +24°C° 0 mm 2 mps 753 mmHg 60%
21:00 +23°C° 0 mm 1 mps 753 mmHg 69%
22:00 +22°C° 0 mm 1 mps 753 mmHg 72%
23:00 +22°C° 0 mm 1 mps 753 mmHg 74%

24 Octubre, Sábado

Tiempo Temperatura Precipitaciones Viento Presión Humedad
00:00 +21°C° 0 mm 1 mps 753 mmHg 77%
01:00 +21°C° 0 mm 1 mps 753 mmHg 77%
02:00 +21°C° 0 mm 1 mps 753 mmHg 77%
03:00 +21°C° 0 mm 1 mps 753 mmHg 77%
04:00 +20°C° 0 mm 1 mps 753 mmHg 76%
05:00 +20°C° 0 mm 1 mps 753 mmHg 75%
06:00 +19°C° 0 mm 1 mps 753 mmHg 74%
07:00 +20°C° 0 mm 0 mps 754 mmHg 61%
08:00 +24°C° 0 mm 0 mps 754 mmHg 49%
09:00 +27°C° 0 mm 0 mps 755 mmHg 37%
10:00 +31°C° 0 mm 1 mps 754 mmHg 30%
11:00 +32°C° 0 mm 1 mps 754 mmHg 24%
12:00 +34°C° 0 mm 1 mps 753 mmHg 18%
13:00 +36°C° 0 mm 2 mps 753 mmHg 17%
14:00 +36°C° 0 mm 3 mps 753 mmHg 17%
15:00 +36°C° 0 mm 4 mps 753 mmHg 17%
16:00 +34°C° 0 mm 4 mps 753 mmHg 25%
17:00 +30°C° 0 mm 4 mps 753 mmHg 34%
18:00 +28°C° 0 mm 4 mps 753 mmHg 43%
19:00 +27°C° 0 mm 3 mps 754 mmHg 51%
20:00 +26°C° 0 mm 3 mps 754 mmHg 59%
21:00 +25°C° 0 mm 3 mps 754 mmHg 67%
22:00 +24°C° 0 mm 2 mps 754 mmHg 70%
23:00 +23°C° 0 mm 1 mps 754 mmHg 74%

25 Octubre, Domingo

Tiempo Temperatura Precipitaciones Viento Presión Humedad
00:00 +22°C° 0 mm 1 mps 754 mmHg 78%
01:00 +20°C° 0 mm 0 mps 754 mmHg 78%
02:00 +19°C° 0 mm 0 mps 754 mmHg 78%
03:00 +19°C° 0 mm 0 mps 754 mmHg 78%
04:00 +19°C° 0 mm 0 mps 754 mmHg 76%
05:00 +21°C° 0 mm 1 mps 754 mmHg 73%
06:00 +21°C° 0 mm 1 mps 754 mmHg 70%
07:00 +24°C° 0 mm 1 mps 755 mmHg 60%
08:00 +27°C° 0 mm 1 mps 755 mmHg 49%
09:00 +30°C° 0 mm 1 mps 755 mmHg 38%
10:00 +32°C° 0 mm 2 mps 755 mmHg 31%
11:00 +34°C° 0 mm 2 mps 755 mmHg 24%
12:00 +36°C° 0 mm 2 mps 754 mmHg 18%
13:00 +36°C° 0 mm 2 mps 754 mmHg 17%
14:00 +37°C° 0 mm 2 mps 753 mmHg 16%
15:00 +37°C° 0 mm 2 mps 753 mmHg 15%
16:00 +35°C° 0 mm 3 mps 753 mmHg 20%
17:00 +31°C° 0 mm 3 mps 753 mmHg 26%
18:00 +28°C° 0 mm 3 mps 753 mmHg 31%
19:00 +27°C° 0 mm 3 mps 753 mmHg 37%
20:00 +26°C° 0 mm 2 mps 754 mmHg 42%
21:00 +25°C° 0 mm 2 mps 754 mmHg 48%
22:00 +24°C° 0 mm 2 mps 754 mmHg 54%
23:00 +24°C° 0 mm 2 mps 754 mmHg 60%
Mostrar más

Necesitamos Su Consentimiento

Meteoprog y nuestros Proveedores de Servicios pueden almacenar y acceder a sus datos personales como cookies, identificadores de dispositivo u otras tecnologías similares de su dispositivo y procesar dichos datos para personalizar contenido y anuncios, además de ofrecer funciones de redes sociales y analizar el tráfico.

  • Almacenar y/o acceder a información en su dispositivo

    Se puede almacenar o acceder a cookies, identificadores de dispositivo u otra información de su dispositivo para los fines anteriormente indicados.

  • Anuncios y contenido personalizados, medición de anuncios y contenido, percepciones del público, y desarrollo de productos

    Los anuncios y el contenido pueden personalizarse en base a su perfil. Se pueden añadir más datos para personalizar mejor los anuncios y contenidos. Se puede medir el rendimiento de los anuncios y contenidos. Se puede obtener la percepción sobre el público que ha visto los anuncios y contenidos. Dichos datos pueden usarse para desarrollar o mejorar la experiencia del usuario, sistemas y software.

Al hacer clic en ‘Estoy De Acuerdo’ usted permitirá el uso de las cookies, identificadores de dispositivo, balizas web u otras tecnologías similares indicadas. Su configuración puede cambiarse desde el navegador de su dispositivo.

Para ciertos fines, los intereses legítimos pueden ser considerados por encima del consentimiento. Puede leer más sobre ello en nuestra Política de Privacidad y Cookies.